DW4188 Weather Reports


Display with metric or nautical units.
time (UTC)temp
F
wind
direction
speed
MPH
gust
MPH
rain 1hr
in
rain 24hr
in
rain mn
in
humidity
%
barometer
mb
20260509012704 69 0 0.0 0.0 0.00 0.00 0.00 59 1019.9
20260509011803 69 0 0.0 0.0 0.00 0.00 0.00 59 1020.1
20260509010904 69 0 0.0 0.0 0.00 0.00 0.00 59 1020.2
20260509010004 68 0 0.0 0.0 0.00 0.00 0.00 60 1020.2
20260509005424 68 0 0.0 0.0 0.00 0.00 0.00 58 1020.3
20260509004504 67 0 0.0 0.0 0.00 0.00 0.00 62 1020.2
20260509003604 67 0 0.0 0.0 0.00 0.00 0.00 62 1020.5
20260509002725 67 0 0.0 0.0 0.00 0.00 0.00 61 1020.4
20260509001804 67 0 0.0 0.0 0.00 0.00 0.00 62 1020.4
20260509000904 65 0 0.0 0.0 0.00 0.00 0.00 63 1020.6
20260509000004 65 0 0.0 0.0 0.00 0.00 0.00 65 1020.6
20260508235425 65 0 0.0 0.0 0.00 0.00 0.00 65 1020.4
20260508234524 64 0 0.0 0.0 0.00 0.00 0.00 67 1020.4
20260508233604 64 0 0.0 0.0 0.00 0.00 0.00 67 1020.3
20260508232704 63 0 0.0 0.0 0.00 0.00 0.00 70 1020.4
20260508231803 62 0 0.0 0.0 0.00 0.00 0.00 73 1020.5
20260508230904 61 0 0.0 0.0 0.00 0.00 0.00 74 1020.2
20260508230004 61 0 0.0 0.0 0.00 0.00 0.00 74 1020.2
20260508225404 60 0 0.0 0.0 0.00 0.00 0.00 75 1020.2
20260508224525 60 0 0.0 0.0 0.00 0.00 0.00 75 1020.1
20260508223604 59 0 0.0 0.0 0.00 0.00 0.00 75 1019.7
20260508222704 59 0 0.0 0.0 0.00 0.00 0.00 75 1019.9
20260508221803 58 0 0.0 0.0 0.00 0.00 0.00 75 1019.7
20260508220904 58 0 0.0 0.0 0.00 0.00 0.00 76 1019.7
20260508220004 58 0 0.0 0.0 0.00 0.00 0.00 76 1019.7
20260508215403 57 0 0.0 0.0 0.00 0.00 0.00 76 1019.7
20260508214504 57 0 0.0 0.0 0.00 0.00 0.00 76 1019.5
20260508213603 56 0 0.0 0.0 0.00 0.00 0.00 76 1019.2
20260508212703 56 0 0.0 0.0 0.00 0.00 0.00 76 1019.1
20260508211803 56 0 0.0 0.0 0.00 0.00 0.00 76 1019.2
20260508210903 56 0 0.0 0.0 0.00 0.00 0.00 76 1019.0
20260508210004 55 0 0.0 0.0 0.00 0.00 0.00 76 1019.0
20260508205425 55 0 0.0 0.0 0.00 0.00 0.00 76 1018.7
20260508204503 55 0 0.0 0.0 0.00 0.00 0.00 76 1018.6
20260508203604 55 0 0.0 0.0 0.00 0.00 0.00 76 1018.7
20260508202703 55 0 0.0 0.0 0.00 0.00 0.00 76 1018.5
20260508201804 55 0 0.0 0.0 0.00 0.00 0.00 76 1018.3
20260508200904 55 0 0.0 0.0 0.00 0.00 0.00 76 1018.4
20260508200004 55 0 0.0 0.0 0.00 0.00 0.00 76 1018.5
20260508195404 55 0 0.0 0.0 0.00 0.00 0.00 76 1018.2
20260508194504 55 0 0.0 0.0 0.00 0.00 0.00 75 1018.1
20260508193625 55 0 0.0 0.0 0.00 0.00 0.00 75 1018.0
20260508192704 55 0 0.0 0.0 0.00 0.00 0.00 75 1017.9
20260508191804 55 0 0.0 0.0 0.00 0.00 0.00 75 1017.6
20260508190904 55 0 0.0 0.0 0.00 0.00 0.00 74 1017.6
20260508190004 55 0 0.0 0.0 0.00 0.00 0.00 74 1017.7
20260508185404 55 0 0.0 0.0 0.00 0.00 0.00 74 1017.6
20260508184504 55 0 0.0 0.0 0.00 0.00 0.00 74 1017.5
20260508183604 55 0 0.0 0.0 0.00 0.00 0.00 74 1017.6
20260508182704 55 0 0.0 0.0 0.00 0.00 0.00 74 1017.5
20260508181804 55 0 0.0 0.0 0.00 0.00 0.00 74 1017.4
20260508180904 55 0 0.0 0.0 0.00 0.00 0.00 74 1017.3
20260508180004 55 0 0.0 0.0 0.00 0.00 0.00 74 1017.3
20260508175404 55 0 0.0 0.0 0.00 0.00 0.00 74 1017.3
20260508174504 55 0 0.0 0.0 0.00 0.00 0.00 74 1017.4
20260508173603 55 0 0.0 0.0 0.00 0.00 0.00 74 1017.6
20260508172704 55 0 0.0 0.0 0.00 0.00 0.00 74 1017.5
20260508171825 55 0 0.0 0.0 0.00 0.00 0.00 74 1017.4
20260508170904 55 0 0.0 0.0 0.00 0.00 0.00 74 1017.4
20260508170004 55 0 0.0 0.0 0.00 0.00 0.00 74 1017.0
20260508165404 55 0 0.0 0.0 0.00 0.00 0.00 74 1017.3
20260508164524 55 0 0.0 0.0 0.00 0.00 0.00 74 1017.1
20260508163604 55 0 0.0 0.0 0.00 0.00 0.00 73 1017.3
20260508162703 55 0 0.0 0.0 0.00 0.00 0.00 73 1017.2
20260508161804 55 0 0.0 0.0 0.00 0.00 0.00 73 1017.1
20260508160904 56 0 0.0 0.0 0.00 0.00 0.00 72 1017.1
20260508160004 56 0 0.0 0.0 0.00 0.00 0.00 72 1017.3
20260508155404 56 0 0.0 0.0 0.00 0.00 0.00 72 1017.4
20260508154525 56 0 0.0 0.0 0.00 0.00 0.00 72 1017.3
20260508153604 56 0 0.0 0.0 0.00 0.00 0.00 72 1017.3
20260508152704 56 0 0.0 0.0 0.00 0.00 0.00 71 1017.2
20260508151804 56 0 0.0 0.0 0.00 0.00 0.00 72 1017.1
20260508150904 56 0 0.0 0.0 0.00 0.00 0.00 71 1017.1
20260508150004 56 0 0.0 0.0 0.00 0.00 0.00 71 1017.0
20260508145404 57 0 0.0 0.0 0.00 0.00 0.00 71 1017.0
20260508144504 57 0 0.0 0.0 0.00 0.00 0.00 71 1017.1
20260508143603 57 0 0.0 0.0 0.00 0.00 0.00 71 1017.1
20260508142704 57 0 0.0 0.0 0.00 0.00 0.00 71 1017.2
20260508141825 57 0 0.0 0.0 0.00 0.00 0.00 72 1017.0
20260508140903 57 0 0.0 0.0 0.00 0.00 0.00 71 1016.9
20260508140006 57 0 0.0 0.0 0.00 0.00 0.00 71 1017.2
20260508135403 58 0 0.0 0.0 0.00 0.00 0.00 70 1016.8
20260508134504 58 0 0.0 0.0 0.00 0.00 0.00 71 1016.9
20260508133604 58 0 0.0 0.0 0.00 0.00 0.00 70 1016.9
20260508132704 58 0 0.0 0.0 0.00 0.00 0.00 70 1016.4
20260508131803 58 0 0.0 0.0 0.00 0.00 0.00 70 1016.7
20260508130924 58 0 0.0 0.0 0.00 0.00 0.00 70 1016.7
20260508130004 58 0 0.0 0.0 0.00 0.00 0.00 70 1016.6
20260508125404 58 0 0.0 0.0 0.00 0.00 0.00 69 1016.4
20260508124504 59 0 0.0 0.0 0.00 0.00 0.00 69 1016.6
20260508123604 59 0 0.0 0.0 0.00 0.00 0.00 70 1016.5
20260508122704 59 0 0.0 0.0 0.00 0.00 0.00 70 1016.7
20260508121804 59 0 0.0 0.0 0.00 0.00 0.00 70 1016.6
20260508120904 59 0 0.0 0.0 0.00 0.00 0.00 70 1016.6
20260508120004 59 0 0.0 0.0 0.00 0.00 0.00 70 1016.4
20260508115404 59 0 0.0 0.0 0.00 0.00 0.00 69 1016.7
20260508114503 60 0 0.0 0.0 0.00 0.00 0.00 69 1016.7
20260508113604 60 0 0.0 0.0 0.00 0.00 0.00 70 1016.9
20260508112704 60 0 0.0 0.0 0.00 0.00 0.00 70 1016.3
20260508111804 60 0 0.0 0.0 0.00 0.00 0.00 69 1016.4
20260508110904 60 0 0.0 0.0 0.00 0.00 0.00 70 1016.4
20260508110024 60 0 0.0 0.0 0.00 0.00 0.00 69 1016.2
20260508105404 60 0 0.0 0.0 0.00 0.00 0.00 68 1016.2
20260508104504 61 0 0.0 0.0 0.00 0.00 0.00 68 1016.1
20260508103625 61 0 0.0 0.0 0.00 0.00 0.00 67 1016.3
20260508102704 61 0 0.0 0.0 0.00 0.00 0.00 67 1016.3
20260508101803 61 0 0.0 0.0 0.00 0.00 0.00 67 1016.0
20260508100903 61 0 0.0 0.0 0.00 0.00 0.00 67 1016.2
20260508100004 61 0 0.0 0.0 0.00 0.00 0.00 66 1016.1
20260508095404 62 0 0.0 0.0 0.00 0.00 0.00 65 1015.9
20260508094504 62 0 0.0 0.0 0.00 0.00 0.00 65 1016.0
20260508093604 62 0 0.0 0.0 0.00 0.00 0.00 64 1015.9
20260508092704 62 0 0.0 0.0 0.00 0.00 0.00 64 1015.8
20260508091804 63 0 0.0 0.0 0.00 0.00 0.00 63 1015.8
20260508090904 63 0 0.0 0.0 0.00 0.00 0.00 63 1015.7
20260508090024 63 0 0.0 0.0 0.00 0.00 0.00 63 1015.7
20260508085403 63 0 0.0 0.0 0.00 0.00 0.00 62 1015.5
20260508084504 64 0 0.0 0.0 0.00 0.00 0.00 61 1015.4
20260508083604 64 0 0.0 0.0 0.00 0.00 0.00 61 1015.3
20260508082725 64 0 0.0 0.0 0.00 0.00 0.00 60 1015.0
20260508081804 65 0 0.0 0.0 0.00 0.00 0.00 59 1015.0
20260508080904 65 0 0.0 0.0 0.00 0.00 0.00 57 1014.7
20260508080004 65 0 0.0 0.0 0.00 0.00 0.00 56 1014.5
20260508075404 65 0 0.0 0.0 0.00 0.00 0.00 56 1014.6
20260508074504 66 0 0.0 0.0 0.00 0.00 0.00 55 1014.5
20260508073604 66 0 0.0 0.0 0.00 0.00 0.00 52 1014.7
20260508072726 67 0 0.0 0.0 0.00 0.00 0.00 51 1014.3
20260508071804 67 0 0.0 0.0 0.00 0.00 0.00 49 1014.2
20260508070904 67 0 0.0 0.0 0.00 0.00 0.00 48 1014.3
20260508070004 68 0 0.0 0.0 0.00 0.00 0.00 47 1014.3
20260508065404 68 0 0.0 0.0 0.00 0.00 0.00 47 1014.4
20260508064504 68 0 0.0 0.0 0.00 0.00 0.00 46 1014.0
20260508063604 69 0 0.0 0.0 0.00 0.00 0.00 45 1013.9
20260508062704 69 0 0.0 0.0 0.00 0.00 0.00 45 1013.8
20260508061825 69 0 0.0 0.0 0.00 0.00 0.00 44 1014.0
20260508060904 69 0 0.0 0.0 0.00 0.00 0.00 44 1013.9
20260508060004 69 0 0.0 0.0 0.00 0.00 0.00 43 1013.7
20260508055403 69 0 0.0 0.0 0.00 0.00 0.00 42 1013.9
20260508054504 69 0 0.0 0.0 0.00 0.00 0.00 41 1013.9
20260508053604 70 0 0.0 0.0 0.00 0.00 0.00 41 1013.9
20260508052704 70 0 0.0 0.0 0.00 0.00 0.00 40 1014.2
20260508051804 70 0 0.0 0.0 0.00 0.00 0.00 38 1013.9
20260508050904 70 0 0.0 0.0 0.00 0.00 0.00 33 1013.9
20260508050004 70 0 0.0 0.0 0.00 0.00 0.00 32 1014.1
20260508045404 70 0 0.0 0.0 0.00 0.00 0.00 31 1014.2
20260508044504 70 0 0.0 0.0 0.00 0.00 0.00 33 1014.5
20260508043604 70 0 0.0 0.0 0.00 0.00 0.00 34 1014.2
20260508042704 70 0 0.0 0.0 0.00 0.00 0.00 35 1014.3
20260508041804 70 0 0.0 0.0 0.00 0.00 0.00 34 1014.3
20260508040903 70 0 0.0 0.0 0.00 0.00 0.00 33 1014.2
20260508040004 69 0 0.0 0.0 0.00 0.00 0.00 34 1014.6
20260508035404 69 0 0.0 0.0 0.00 0.00 0.00 31 1014.4
20260508034504 69 0 0.0 0.0 0.00 0.00 0.00 34 1014.6
20260508033603 69 0 0.0 0.0 0.00 0.00 0.00 34 1014.8
20260508032703 69 0 0.0 0.0 0.00 0.00 0.00 34 1015.0
20260508031804 69 0 0.0 0.0 0.00 0.00 0.00 33 1015.3
20260508030904 69 0 0.0 0.0 0.00 0.00 0.00 36 1015.2
20260508030024 69 0 0.0 0.0 0.00 0.00 0.00 37 1015.0
20260508025403 68 31 0.0 1.0 0.00 0.00 0.00 39 1015.2
20260508024504 68 0 0.0 0.0 0.00 0.00 0.00 39 1015.1
20260508023604 68 0 0.0 0.0 0.00 0.00 0.00 38 1015.5
20260508022704 68 0 0.0 0.0 0.00 0.00 0.00 39 1015.7
20260508021804 67 0 0.0 0.0 0.00 0.00 0.00 38 1015.4
20260508020925 67 0 0.0 0.0 0.00 0.00 0.00 37 1015.6
20260508020004 67 0 0.0 0.0 0.00 0.00 0.00 38 1015.9
20260508015404 67 0 0.0 0.0 0.00 0.00 0.00 38 1016.2
20260508014504 67 0 0.0 0.0 0.00 0.00 0.00 38 1016.5
20260508013624 66 0 0.0 0.0 0.00 0.00 0.00 38 1016.6